Location: Isola Pescaroli
(45.0500°N, 10.1667°E)
Time: 02:12:52
(UTC+00:00)

SL-4 R/B - Pass Details

Date: 22 June 2021
Orbit: 428 x 662 km, 51.6° (Epoch: 29 July)

Event Time Altitude Azimuth Distance (km) Brightness Sun altitude
Rises 02:46:47 0° 298° (WNW) 2,514 5.2 -7.1°
Reaches altitude 10° 02:49:00 10° 296° (WNW) 1,602 4.2 -6.8°
Maximum altitude 02:52:33 66° 214° (SSW) 486 1.5 -6.3°
Drops below altitude 10° 02:55:56 10° 131° (SE) 1,528 4.4 -5.9°
Sets 02:58:01 0° 129° (SE) 2,383 5.4 -5.6°
